Location: Coopersdale
(40.3556°N, 78.9372°W)
Time: 03:25:45
(UTC+00:00)

Tiros 1 despin weight - Pass Details

Date: 21 January 2021
Orbit: 593 x 642 km, 48.2° (Epoch: 02 March)

Event Time Altitude Azimuth Distance (km) Brightness Sun altitude
Rises 01:43:34 0° 300° (WNW) 2,841 ? -38.5°
Enters shadow 01:45:39 - 304° (NW) 2,030 ? -38.9°
Reaches altitude 10° 01:45:54 10° 305° (NW) 1,932 - -38.9°
Maximum altitude 01:50:16 57° 24° (NNE) 700 - -39.8°
Drops below altitude 10° 01:54:36 10° 104° (ESE) 1,918 - -40.6°
Sets 01:56:54 0° 108° (ESE) 2,819 - -41.0°
